Location: 22
(39.7117°N, 89.5929°W)
Time: 09:20:13
(UTC-05:00)

Vanguard 1 Rocket - Pass Details

Date: 12 February 2023
Orbit: 652 x 4223 km, 34.3° (Epoch: 24 March)

Event Time Altitude Azimuth Distance (km) Brightness Sun altitude
Rises 15:14:41 0° 278° (W) 5,139 11.8 22.0°
Reaches altitude 10° 15:17:36 10° 272° (W) 4,513 11.8 21.6°
Maximum altitude 15:30:23 47° 204° (SSW) 3,718 11.6 19.7°
Drops below altitude 10° 15:52:02 10° 140° (SE) 7,292 12.0 16.3°
Sets 15:58:33 0° 135° (SE) 8,450 12.2 15.3°
